Date,TemperatureHighF,TemperatureAvgF,TemperatureLowF,DewpointHighF,DewpointAvgF,DewpointLowF,HumidityHigh,HumidityAvg,HumidityLow,PressureMaxIn,PressureMinIn,WindSpeedMaxMPH,WindSpeedAvgMPH,GustSpeedMaxMPH,PrecipitationSumIn
2013-11-1,67.0,55.8,47.0,55.0,46.7,41.0,98,74,39,0.00,40.00,6,4,22,0.93
2013-11-2,57.0,47.9,38.0,44.0,38.8,32.0,99,72,47,0.00,40.00,5,2,14,0.00
2013-11-3,57.0,42.5,33.0,39.0,31.0,-99.9,99,70,37,0.00,40.00,3,1,10,0.00
2013-11-4,58.0,50.1,41.0,42.0,37.8,34.0,80,63,51,0.00,40.00,3,2,12,0.00
2013-11-5,62.0,54.8,49.0,46.0,41.9,39.0,90,63,45,0.00,40.00,3,1,10,0.01
2013-11-6,63.0,55.8,42.0,59.0,48.8,40.0,100,79,53,0.00,40.00,5,3,15,0.36
2013-11-7,51.0,41.0,34.0,41.0,30.4,21.0,99,70,31,0.00,40.00,5,3,13,0.14
2013-11-8,56.0,40.0,29.0,30.0,26.7,23.0,95,64,28,0.00,40.00,4,2,11,0.00
2013-11-9,63.0,48.9,39.0,40.0,28.5,-99.9,65,48,33,0.00,40.00,9,5,22,0.00
2013-11-10,57.0,48.6,41.0,42.0,31.5,22.0,78,55,26,0.00,40.00,5,3,14,0.00
2013-11-11,60.0,52.1,34.0,44.0,32.4,25.0,96,52,26,0.00,40.00,7,4,16,0.04
2013-11-12,40.0,31.9,25.0,39.0,22.3,16.0,98,70,39,0.00,40.00,7,4,22,0.11
2013-11-13,44.0,30.1,19.0,22.0,18.1,15.0,92,64,32,0.00,40.00,5,2,12,0.01
2013-11-14,57.0,40.9,30.0,20.0,16.8,14.0,59,40,18,0.00,40.00,7,5,18,0.00
2013-11-15,51.0,45.1,39.0,45.0,27.1,16.0,93,52,31,0.00,40.00,7,3,15,0.00
2013-11-16,61.0,52.3,47.0,59.0,48.8,-99.9,100,91,83,0.00,40.00,6,4,14,0.01
2013-11-17,65.0,60.3,52.0,63.0,56.7,40.0,100,89,57,0.00,40.00,12,6,36,1.75
2013-11-18,55.0,46.8,39.0,41.0,34.0,26.0,84,62,37,0.00,40.00,7,4,20,0.71
2013-11-19,42.0,36.3,30.0,28.0,26.2,24.0,81,67,54,0.00,40.00,4,2,13,0.00
2013-11-20,55.0,40.2,28.0,30.0,27.3,24.0,87,63,37,0.00,40.00,5,3,14,0.00
2013-11-21,58.0,52.1,47.0,51.0,40.9,29.0,97,67,48,0.00,40.00,5,3,11,0.02
2013-11-22,54.0,48.5,38.0,52.0,46.1,33.0,100,92,78,0.00,40.00,6,3,15,0.10
2013-11-23,39.0,30.8,22.0,33.0,19.5,-99.9,93,67,44,0.00,40.00,6,4,19,0.01
2013-11-24,29.0,21.7,13.0,11.0,8.4,6.0,81,57,41,0.00,40.00,4,2,11,0.00
2013-11-25,37.0,28.7,21.0,29.0,14.2,8.0,96,56,36,0.00,40.00,6,2,14,0.00
2013-11-26,35.0,32.5,30.0,31.0,28.7,24.0,99,86,68,0.00,40.00,4,2,13,0.02
2013-11-27,33.0,25.4,18.0,25.0,14.8,6.0,77,64,53,0.00,40.00,6,4,19,0.02
2013-11-28,39.0,25.7,15.0,14.0,11.0,6.0,75,55,32,0.00,40.00,6,3,15,0.00
2013-11-29,42.0,35.9,27.0,21.0,19.3,15.0,62,51,41,0.00,40.00,4,2,9,0.00
2013-11-30,55.0,46.5,29.0,26.0,20.3,-99.9,73,39,32,0.00,40.00,6,4,15,0.00